Location: Igri�s
(42.2144°N, 0.4320°W)
Time: 10:18:00
(UTC+00:00)

Cosmos 1869 Rocket - Pass Details

Date: 13 August 2020
Orbit: 604 x 634 km, 82.5° (Epoch: 19 September)

Event Time Altitude Azimuth Distance (km) Brightness Sun altitude
Exits shadow 22:01:01 62° 295° (WNW) 707 3.9 -26.5°
Drops below altitude 10° 22:05:17 10° 2° (N) 2,019 6.9 -27.0°
Sets 22:07:34 0° 5° (N) 2,935 7.8 -27.2°
